ARIANE 5 R/B, 41309

Orbit data source: Space-Track

ARIANE 5 R/B, 41309 is space debris in HEO originally from a launch on Wed, 27 Jan 2016 UTC launched from the French Guiana (FRGUI). Debris objects in space refer to the collection of defunct objects orbiting the Earth. Examples of debris include non-operational satellites, rocket bodies, and fragments generated from explosions, collisions, or faulty payload assembly.

Loading next visibility...
Identifier
41309, 2016-004B
Orbit
HEO
Country
Flag of FRFR
Related business
Manufacturer
Airbus Safran
Mission
Spacecraft
Bus & Motor
ESC-A, Unknown motor
Mass
~5,000 kg wet, ~5,000 kg dry
Launch date (UTC)
2016-01-27 (11 years ago)
Launch vehicle
Unknown
Launch site
French Guiana (FRGUI)
Object type
Payload
Rocket body
Debris
Shape & HBR
Cyl + 1 Nozzle, 4.4 m
Radar Cross Section
41.627 m², Large (>1 m²)

Expand to show TLE details & history
Last TLE update: 16 hours ago

TLE from 16 hours ago
0 ARIANE 5 R/B
1 41309U 16004B   26257.86514205  .00001051  00000-0  64066-3 0  9993
2 41309   1.0917  32.1236 7171287 290.7753  10.4464  2.39867208 90733
Epoch: 2026-09-14T20:45Z
TLE epoch observation values (Epoch: 2026-09-14T20:45:48.273Z)
Latitude
-0.00003°
Longitude
88.54683°
Altitude
2,878.73 km
Speed
8.319 km/s
True Right ascension
02h 15m 20s
True Declination
0° 00' 00"
Sunlit
Object was in full shadow at epoch
Visualization orbit readout
Latitude
Unknown
Longitude
Unknown
Altitude
Unknown
Speed
Unknown
Apparent Right ascension
Unknown
Apparent Declination
Unknown
Sunlit
N/A
Visualization observer readout
Local Sidereal Time
05:05:59
Azimuth
Unknown
Elevation
Unknown
Doppler factor
Unknown
Orbital elements
Apogee altitude
34,109.832 km
Perigee altitude
291.651 km
Semi-major axis
23,578.879 km
Eccentricity
0.71713
Inclination
1.0917°
RAAN
32.1236°
Arg. of periapsis
290.7753°
True anomaly
71.47035°
Mean anomaly
10.4464°
Eccentric anomaly
32.5587°
Mean motion
0.59946 °/min
Orbital period
600.54 mins
BSTAR
0.00064066
Loading maneuver chart data...
Computing Atmospheric mass density...
Loading historical data...
Loading historical data...
Loading historical data...
Loading historical data...
Loading historical data...
Loading historical data...
Loading historical data...
Other satellites on launch #4 in the year 2016 (2016-01-27 UTC)

Documentation

Showing up to 5 results
|